2023-001X (55030 NORAD) Tracking and Keplerian Element Data

This shows tracking and keplerian element data for the satellite.

Feedback or suggestion? Click here.




ElementValue
Catalog55030
Name2023-001X
Epoch Orbit169
Epoch Day13.78627606
Epoch Year2023
RAAN75.7267
Inclination97.5006
Eccentricity0.0012078
Argument of Perigee176.727
Mean Anonmoly183.4042
Mean Motion15.12463976
Decay Rate9.998E-05
L11 55030U 23001X 23013.78627606 .00009998 00000+0 57723-3 0 9991
L22 55030 97.5006 75.7267 0012078 176.7270 183.4042 15.12463976 1696



Live tracking and technical data element details for 2023-001X (NORAD 55030). 2023-001X can be tracked NOW for your location showing map with azimuth and elevation plus other details from your city location.







IsCatalogInMostPopularTable: catalog: 55030, numindb: 3
Update: records affected: 1



GetName: 55030 2023-001X

Hit Count: updated at: Tue, 07 Feb 2023 14:49:08 GMT